Location: Praha
(50.0830°N, 14.4670°E)
Time: 06:15:48
(UTC+01:00)

ISS - Pass Details

Date: 24 November 2019
Orbit: 411 x 421 km, 51.6° (Epoch: 15 December)

Event Time Altitude Azimuth Distance (km) Brightness Sun altitude
Rises 18:23:57 0° 231° (SW) 2,350 1.0 -21.2°
Reaches altitude 10° 18:26:05 10° 225° (SW) 1,492 -0.3 -21.5°
Enters shadow 18:28:25 35° 195° (SSW) 701 -2.5 -21.9°
